Torna al catalogo

CZ-6A DEB

AttivoSSO
NORAD 54881·DEBRIS·🇨🇳 China

Lanciato Nov 11, 2022 da Taiyuan Satellite Launch Center

Loading…

Prossimi Passaggi (prossime 24 ore)

TLE

AggiornatoSource: Space-Track

Epoca: Sep 14, 2026, 20:18 UTC

1 54881U 22151PS  26257.84641725  .00006482  00000-0  10295-2 0  9995
2 54881  98.4005 291.7353 0086875 328.8044  30.8021 14.69951461202023

Traccia CZ-6A DEB in tempo reale con AllMySat

Download on the App Store